• En España
  • Lista de países
  • Para 7 días
  • Temperatura del agua
  • Mapa Satelital
  • El tiempo en el mapa
  • Informadores
  • user-avatar
    Iniciar sesión

    Tiempo cada hora Innsbruck

    Hoy, 21 Agosto, Lunes

    Tiempo Temperatura Precipitaciones Viento Presión Humedad
    00:00 +3°C° 0 mm 1 mps 599 mmHg 92%
    01:00 +3°C° 0 mm 1 mps 599 mmHg 94%
    02:00 +3°C° 0 mm 1 mps 599 mmHg 94%
    03:00 +3°C° 0 mm 1 mps 599 mmHg 94%
    04:00 +3°C° 0 mm 1 mps 599 mmHg 94%
    05:00 +3°C° 0 mm 1 mps 599 mmHg 89%
    06:00 +4°C° 0 mm 1 mps 600 mmHg 85%
    07:00 +6°C° 0 mm 1 mps 600 mmHg 78%
    08:00 +8°C° 0 mm 1 mps 601 mmHg 68%
    09:00 +9°C° 0 mm 2 mps 602 mmHg 58%
    10:00 +10°C° 0 mm 2 mps 603 mmHg 47%
    11:00 +12°C° 0 mm 2 mps 603 mmHg 46%
    12:00 +12°C° 0 mm 2 mps 603 mmHg 46%
    13:00 +13°C° 0 mm 2 mps 603 mmHg 45%
    14:00 +13°C° 0 mm 2 mps 603 mmHg 46%
    15:00 +13°C° 0 mm 2 mps 602 mmHg 48%
    16:00 +13°C° 0 mm 2 mps 602 mmHg 50%
    17:00 +10°C° 0 mm 2 mps 601 mmHg 59%
    18:00 +8°C° 0 mm 2 mps 601 mmHg 69%
    19:00 +7°C° 0 mm 1 mps 600 mmHg 79%
    20:00 +6°C° 0 mm 1 mps 600 mmHg 83%
    21:00 +5°C° 0 mm 1 mps 600 mmHg 88%
    22:00 +4°C° 0 mm 1 mps 599 mmHg 92%
    23:00 +4°C° 0 mm 1 mps 599 mmHg 91%

    Mañana, 22 Agosto, Martes

    Tiempo Temperatura Precipitaciones Viento Presión Humedad
    00:00 +3°C° 0 mm 1 mps 599 mmHg 91%
    01:00 +3°C° 0 mm 1 mps 599 mmHg 90%
    02:00 +3°C° 0 mm 1 mps 599 mmHg 89%
    03:00 +3°C° 0 mm 1 mps 598 mmHg 88%
    04:00 +3°C° 0 mm 1 mps 598 mmHg 87%
    05:00 +4°C° 0 mm 1 mps 599 mmHg 82%
    06:00 +6°C° 0 mm 1 mps 600 mmHg 78%
    07:00 +7°C° 0 mm 1 mps 600 mmHg 73%
    08:00 +10°C° 0 mm 1 mps 601 mmHg 66%
    09:00 +12°C° 0 mm 1 mps 602 mmHg 59%
    10:00 +14°C° 0 mm 1 mps 603 mmHg 52%
    11:00 +15°C° 0 mm 1 mps 603 mmHg 50%
    12:00 +16°C° 0 mm 2 mps 603 mmHg 48%
    13:00 +17°C° 0 mm 2 mps 603 mmHg 47%
    14:00 +16°C° 0,1 mm 2 mps 603 mmHg 50%
    15:00 +16°C° 0,1 mm 2 mps 602 mmHg 54%
    16:00 +15°C° 0,1 mm 2 mps 602 mmHg 57%
    17:00 +14°C° 0,1 mm 2 mps 601 mmHg 67%
    18:00 +12°C° 0,1 mm 2 mps 600 mmHg 77%
    19:00 +9°C° 0,1 mm 2 mps 600 mmHg 87%
    20:00 +9°C° 0 mm 1 mps 599 mmHg 90%
    21:00 +8°C° 0 mm 1 mps 599 mmHg 93%
    22:00 +7°C° 0 mm 1 mps 599 mmHg 96%
    23:00 +7°C° 0 mm 1 mps 599 mmHg 95%

    Pasado mañana, 23 Agosto, Miércoles

    Tiempo Temperatura Precipitaciones Viento Presión Humedad
    00:00 +6°C° 0 mm 1 mps 598 mmHg 95%
    01:00 +6°C° 0 mm 1 mps 598 mmHg 95%
    02:00 +6°C° 0 mm 1 mps 598 mmHg 93%
    03:00 +6°C° 0 mm 1 mps 598 mmHg 92%
    04:00 +5°C° 0 mm 1 mps 597 mmHg 90%
    05:00 +7°C° 0 mm 1 mps 598 mmHg 86%
    06:00 +8°C° 0 mm 1 mps 599 mmHg 81%
    07:00 +9°C° 0 mm 1 mps 600 mmHg 77%
    08:00 +12°C° 0 mm 1 mps 601 mmHg 66%
    09:00 +15°C° 0 mm 1 mps 602 mmHg 56%
    10:00 +18°C° 0 mm 1 mps 603 mmHg 45%
    11:00 +19°C° 0 mm 1 mps 603 mmHg 42%
    12:00 +20°C° 0 mm 1 mps 603 mmHg 40%
    13:00 +19°C° 0 mm 2 mps 603 mmHg 37%
    14:00 +19°C° 0,1 mm 2 mps 603 mmHg 39%
    15:00 +19°C° 0,1 mm 2 mps 603 mmHg 41%
    16:00 +18°C° 0,1 mm 2 mps 603 mmHg 44%
    17:00 +16°C° 0,2 mm 2 mps 602 mmHg 55%
    18:00 +14°C° 0,2 mm 1 mps 601 mmHg 67%
    19:00 +11°C° 0,2 mm 1 mps 600 mmHg 79%
    20:00 +10°C° 0,1 mm 1 mps 600 mmHg 81%
    21:00 +9°C° 0,1 mm 1 mps 600 mmHg 82%
    22:00 +8°C° 0,1 mm 1 mps 599 mmHg 84%
    23:00 +8°C° 0 mm 1 mps 599 mmHg 81%

    24 Agosto, Jueves

    Tiempo Temperatura Precipitaciones Viento Presión Humedad
    00:00 +8°C° 0 mm 1 mps 599 mmHg 79%
    01:00 +7°C° 0 mm 1 mps 599 mmHg 77%
    02:00 +7°C° 0 mm 1 mps 599 mmHg 75%
    03:00 +7°C° 0 mm 1 mps 599 mmHg 73%
    04:00 +7°C° 0 mm 1 mps 598 mmHg 70%
    05:00 +8°C° 0 mm 1 mps 599 mmHg 67%
    06:00 +10°C° 0 mm 1 mps 600 mmHg 64%
    07:00 +12°C° 0 mm 1 mps 601 mmHg 61%
    08:00 +14°C° 0 mm 1 mps 602 mmHg 54%
    09:00 +15°C° 0 mm 0 mps 603 mmHg 47%
    10:00 +18°C° 0 mm 0 mps 604 mmHg 40%
    11:00 +18°C° 0 mm 0 mps 604 mmHg 40%
    12:00 +20°C° 0 mm 1 mps 604 mmHg 39%
    13:00 +21°C° 0 mm 1 mps 604 mmHg 38%
    14:00 +20°C° 0,1 mm 1 mps 604 mmHg 42%
    15:00 +20°C° 0,1 mm 1 mps 604 mmHg 45%
    16:00 +19°C° 0,1 mm 1 mps 603 mmHg 48%
    17:00 +16°C° 0,8 mm 1 mps 602 mmHg 59%
    18:00 +14°C° 0,8 mm 1 mps 602 mmHg 71%
    19:00 +11°C° 0,8 mm 0 mps 601 mmHg 82%
    20:00 +11°C° 0,2 mm 1 mps 601 mmHg 83%
    21:00 +10°C° 0,2 mm 1 mps 601 mmHg 84%
    22:00 +10°C° 0,2 mm 1 mps 600 mmHg 85%
    23:00 +9°C° 0 mm 1 mps 600 mmHg 84%

    25 Agosto, Viernes

    Tiempo Temperatura Precipitaciones Viento Presión Humedad
    00:00 +8°C° 0 mm 2 mps 600 mmHg 84%
    01:00 +8°C° 0 mm 2 mps 600 mmHg 84%
    02:00 +7°C° 0 mm 2 mps 600 mmHg 83%
    03:00 +7°C° 0 mm 2 mps 599 mmHg 83%
    04:00 +7°C° 0 mm 2 mps 599 mmHg 82%
    05:00 +8°C° 0 mm 2 mps 600 mmHg 79%
    06:00 +10°C° 0 mm 1 mps 600 mmHg 76%
    07:00 +11°C° 0 mm 1 mps 601 mmHg 73%
    08:00 +14°C° 0 mm 1 mps 602 mmHg 63%
    09:00 +18°C° 0 mm 1 mps 603 mmHg 53%
    10:00 +20°C° 0 mm 1 mps 604 mmHg 44%
    11:00 +21°C° 0 mm 1 mps 604 mmHg 41%
    12:00 +22°C° 0 mm 1 mps 604 mmHg 39%
    13:00 +23°C° 0 mm 1 mps 604 mmHg 36%
    14:00 +21°C° 0,1 mm 2 mps 604 mmHg 39%
    15:00 +21°C° 0,1 mm 2 mps 604 mmHg 41%
    16:00 +21°C° 0,1 mm 2 mps 603 mmHg 43%
    17:00 +18°C° 0,2 mm 2 mps 603 mmHg 55%
    18:00 +16°C° 0,2 mm 1 mps 602 mmHg 67%
    19:00 +14°C° 0,2 mm 1 mps 601 mmHg 79%
    20:00 +13°C° 0,2 mm 1 mps 601 mmHg 80%
    21:00 +12°C° 0,2 mm 2 mps 601 mmHg 82%
    22:00 +12°C° 0,2 mm 2 mps 601 mmHg 84%
    23:00 +10°C° 0 mm 2 mps 600 mmHg 84%

    26 Agosto, Sábado

    Tiempo Temperatura Precipitaciones Viento Presión Humedad
    00:00 +10°C° 0 mm 2 mps 600 mmHg 85%
    01:00 +9°C° 0 mm 2 mps 600 mmHg 85%
    02:00 +9°C° 0 mm 2 mps 600 mmHg 85%
    03:00 +9°C° 0 mm 2 mps 599 mmHg 84%
    04:00 +8°C° 0 mm 2 mps 599 mmHg 83%
    05:00 +9°C° 0 mm 2 mps 600 mmHg 80%
    06:00 +10°C° 0 mm 2 mps 600 mmHg 77%
    07:00 +12°C° 0 mm 2 mps 600 mmHg 74%
    08:00 +15°C° 0 mm 2 mps 601 mmHg 63%
    09:00 +17°C° 0 mm 2 mps 603 mmHg 53%
    10:00 +21°C° 0 mm 1 mps 604 mmHg 43%
    11:00 +21°C° 0 mm 2 mps 604 mmHg 41%
    12:00 +23°C° 0 mm 2 mps 604 mmHg 39%
    13:00 +23°C° 0 mm 2 mps 604 mmHg 37%
    14:00 +23°C° 0,3 mm 2 mps 603 mmHg 41%
    15:00 +21°C° 0,3 mm 2 mps 603 mmHg 45%
    16:00 +21°C° 0,3 mm 2 mps 603 mmHg 49%
    17:00 +18°C° 1,7 mm 2 mps 602 mmHg 60%
    18:00 +16°C° 1,7 mm 1 mps 601 mmHg 71%
    19:00 +14°C° 1,7 mm 1 mps 600 mmHg 83%
    20:00 +13°C° 1,1 mm 1 mps 600 mmHg 84%
    21:00 +13°C° 1,1 mm 2 mps 600 mmHg 85%
    22:00 +12°C° 1,1 mm 2 mps 600 mmHg 86%
    23:00 +10°C° 0,1 mm 2 mps 600 mmHg 85%
    Mostrar más